(184791) = 2005 TM58

Discovered at Mount Lemmon on 2005-10-01 by Mt. Lemmon Survey.

Orbit

Orbit type: Main Belt

Note: WebGL enabled browser required.

epoch2023-02-25.0
epoch JD2460000.5
perihelion date2019-10-13.06615
perihelion JD2458769.56615
argument of perihelion (°)237.70352
ascending node (°)53.00210
inclination (°)1.77852
eccentricity0.0732909
perihelion distance (AU)2.7438749
Tisserand w.r.t. Jupiter3.3
ΔV w.r.t. Earth (km/sec)10.3
semimajor axis (AU)2.9608804
mean anomaly (°)238.12625
mean daily motion (°/day)0.19345170
aphelion distance (AU)3.178
period (years)5.09
P-vector [x]0.35324136
P-vector [y]-0.84756093
P-vector [z]-0.39605684
Q-vector [x]0.93520379
Q-vector [y]0.33112929
Q-vector [z]0.12548807
absolute magnitude16.27
phase slope0.15
uncertainty0
referenceMPEC 2023-F215
observations used318
oppositions13
arc length (days)8182
first opposition used2000
last opposition used2023
residual rms (arc-secs)0.72
perturbers coarse indicatorM-v
perturbers precise indicator003Ek
first observation date used2000-11-01.0
last observation date used2023-03-28.0
computer nameMPCLINUX
JD of orbit computation2456376.478579
perihelion JD uncertainty (days)4.0568E-04
argument of perihelion uncertainty (°)1.7041E-04
ascending node uncertainty (°)1.5243E-04
inclination uncertainty (°)6.3116E-06
eccentricity uncertainty 3.7153E-08
perihelion distance uncertainty (AU)1.1916E-07
Minimum Orbit Intersection Distances (in AU)
for orbit epoch: 2460000.5, reference: E2023-E28
Mercury2.28931
Venus2.01599
Earth1.72733
Mars1.28545
Jupiter1.93268
Saturn5.89783
Uranus15.3455
Neptune26.8326

Observations

324 total observations over interval: 2000 11 01.31281 – 2023 03 28.238458
These data are available for download (format description).

Date (UT) J2000 RA J2000 Dec Magn Location Ref
2000 11 01.31281 02 32 34.44 +14 20 23.5 20.9 V 691 – Steward Observatory, Kitt Peak-Spacewatch MPS 168834
2000 11 01.33468 02 32 33.28 +14 20 19.5 21.2 V 691 – Steward Observatory, Kitt Peak-Spacewatch MPS 168834
2000 11 01.35751 02 32 32.10 +14 20 14.5 20.6 V 691 – Steward Observatory, Kitt Peak-Spacewatch MPS 168834
2000 11 30.299930 02 11 30.241 +12 52 17.07 21.47 V 645 – Apache Point-Sloan Digital Sky Survey MPS 168834
2000 11 30.303402 02 11 30.127 +12 52 16.64 22.44   645 – Apache Point-Sloan Digital Sky Survey MPS 168834
2003 03 27.30247 13 04 30.17 -05 01 15.3 20.8 V 691 – Steward Observatory, Kitt Peak-Spacewatch MPS 168834
2003 03 27.32860 13 04 28.94 -05 01 08.3 20.5 V 691 – Steward Observatory, Kitt Peak-Spacewatch MPS 168834
2003 03 27.35515 13 04 27.73 -05 01 01.4 20.2 V 691 – Steward Observatory, Kitt Peak-Spacewatch MPS 168834
2005 10 01.33523 02 18 14.72 +12 37 13.3 20.2 V G96 – Mt. Lemmon Survey MPS 147653
2005 10 01.34362 02 18 14.40 +12 37 11.7 20.3 V G96 – Mt. Lemmon Survey MPS 147653
2005 10 01.35196 02 18 14.07 +12 37 10.5 20.4 V G96 – Mt. Lemmon Survey MPS 147653
2005 10 01.36028 02 18 13.75 +12 37 08.8 20.2 V G96 – Mt. Lemmon Survey MPS 147653
2005 10 07.38777 02 14 15.38 +12 18 46.1 20.9 V 691 – Steward Observatory, Kitt Peak-Spacewatch MPS 147653
2005 10 07.40513 02 14 14.62 +12 18 42.8 20.8 V 691 – Steward Observatory, Kitt Peak-Spacewatch MPS 147653
2005 10 07.42251 02 14 13.83 +12 18 39.5 21.0 V 691 – Steward Observatory, Kitt Peak-Spacewatch MPS 147653
2005 10 11.38907 02 11 19.62 +12 05 07.1 20.7 V 691 – Steward Observatory, Kitt Peak-Spacewatch MPS 155337
2005 10 11.40651 02 11 18.79 +12 05 03.5 20.5 V 691 – Steward Observatory, Kitt Peak-Spacewatch MPS 155337
2005 10 11.42381 02 11 17.97 +12 05 00.1 20.5 V 691 – Steward Observatory, Kitt Peak-Spacewatch MPS 155337
2005 10 27.29462 01 58 27.51 +11 04 28.5 19.7 V G96 – Mt. Lemmon Survey MPS 149680
2005 10 27.30145 01 58 27.15 +11 04 27.0 19.5 V G96 – Mt. Lemmon Survey MPS 149680
2005 10 27.30843 01 58 26.83 +11 04 25.5 19.4 V G96 – Mt. Lemmon Survey MPS 149680
2005 10 27.31512 01 58 26.47 +11 04 23.8 19.4 V G96 – Mt. Lemmon Survey MPS 149680
2005 10 29.30133 01 56 48.51 +10 56 39.4 20.0 V G96 – Mt. Lemmon Survey MPS 149680
2005 10 29.30902 01 56 48.12 +10 56 38.1 20.0 V G96 – Mt. Lemmon Survey MPS 149680
2005 10 29.31679 01 56 47.72 +10 56 36.1 20.0 V G96 – Mt. Lemmon Survey MPS 149680
2005 10 29.32468 01 56 47.32 +10 56 34.3 19.9 V G96 – Mt. Lemmon Survey MPS 149680
2005 11 29.21490 01 37 28.27 +09 28 39.1 21.3 V G96 – Mt. Lemmon Survey MPS 152186
2005 11 29.22216 01 37 28.12 +09 28 38.4 21.1 V G96 – Mt. Lemmon Survey MPS 152186
2005 11 29.22932 01 37 28.02 +09 28 38.0 21.0 V G96 – Mt. Lemmon Survey MPS 152186
2005 11 29.23640 01 37 27.80 +09 28 37.7 21.4 V G96 – Mt. Lemmon Survey MPS 152186
2006 12 21.34030 07 45 25.99 +23 16 45.3 21.1 V G96 – Mt. Lemmon Survey MPS 192255
2006 12 21.34714 07 45 25.70 +23 16 46.2 21.2 V G96 – Mt. Lemmon Survey MPS 192255
2006 12 21.35395 07 45 25.41 +23 16 47.4 21.2 V G96 – Mt. Lemmon Survey MPS 192255
2006 12 21.36085 07 45 25.02 +23 16 45.5 19.8 V G96 – Mt. Lemmon Survey MPS 192255
2006 12 24.33352 07 43 11.80 +23 23 58.0 21.2 V 691 – Steward Observatory, Kitt Peak-Spacewatch MPS 192255
2006 12 24.35085 07 43 10.94 +23 24 00.6 21.2 V 691 – Steward Observatory, Kitt Peak-Spacewatch MPS 192255
2006 12 24.36819 07 43 10.12 +23 24 03.2 21.2 V 691 – Steward Observatory, Kitt Peak-Spacewatch MPS 192255
2007 01 10.15250 07 28 35.37 +24 03 51.7   691 – Steward Observatory, Kitt Peak-Spacewatch MPS 195537
2007 01 10.16982 07 28 34.39 +24 03 54.0   691 – Steward Observatory, Kitt Peak-Spacewatch MPS 195537
2007 01 10.18714 07 28 33.42 +24 03 56.3   691 – Steward Observatory, Kitt Peak-Spacewatch MPS 195537
2008 03 09.29041 12 40 28.15 -02 12 11.0   691 – Steward Observatory, Kitt Peak-Spacewatch MPS 242143
2008 03 09.30555 12 40 27.56 -02 12 06.9   691 – Steward Observatory, Kitt Peak-Spacewatch MPS 242143
2008 03 09.32069 12 40 26.98 -02 12 03.5   691 – Steward Observatory, Kitt Peak-Spacewatch MPS 242143
2008 03 26.33706 12 28 01.34 -00 55 15.1 20.3 V G96 – Mt. Lemmon Survey MPS 244039
2008 03 26.34471 12 28 00.98 -00 55 12.7 20.0 V G96 – Mt. Lemmon Survey MPS 244039
2008 03 26.35243 12 28 00.58 -00 55 10.6 20.2 V G96 – Mt. Lemmon Survey MPS 244039
2008 03 26.36013 12 28 00.22 -00 55 08.6 20.3 V G96 – Mt. Lemmon Survey MPS 244039
2008 04 03.21998 12 21 51.08 -00 18 39.9 20.2 V G96 – Mt. Lemmon Survey MPS 244719
2008 04 03.22543 12 21 50.83 -00 18 38.6 20.2 V G96 – Mt. Lemmon Survey MPS 244719
2008 04 03.23093 12 21 50.54 -00 18 37.2 20.2 V G96 – Mt. Lemmon Survey MPS 244719
2008 04 03.23637 12 21 50.32 -00 18 35.8 20.3 V G96 – Mt. Lemmon Survey MPS 244719
2008 04 28.17185 12 05 57.73 +01 07 33.2 20.6 V G96 – Mt. Lemmon Survey MPS 248889
2008 04 28.17734 12 05 57.58 +01 07 34.2 20.4 V G96 – Mt. Lemmon Survey MPS 248890
2008 04 28.18281 12 05 57.37 +01 07 34.1 20.2 V G96 – Mt. Lemmon Survey MPS 248890
2008 04 28.18836 12 05 57.26 +01 07 34.4 20.8 V G96 – Mt. Lemmon Survey MPS 248890
2008 06 06.15755 12 04 42.16 +00 43 43.0 21.8 V G96 – Mt. Lemmon Survey MPS 251346
2008 06 06.16558 12 04 42.38 +00 43 42.0 20.7 V G96 – Mt. Lemmon Survey MPS 251346
2008 06 06.17361 12 04 42.52 +00 43 40.2 20.5 V G96 – Mt. Lemmon Survey MPS 251346
2008 06 06.18159 12 04 42.70 +00 43 38.7 21.0 V G96 – Mt. Lemmon Survey MPS 251346
2010 09 27.37774 01 44 29.77 +09 15 25.2   691 – Steward Observatory, Kitt Peak-Spacewatch MPS 350883
2010 09 27.39035 01 44 29.26 +09 15 22.8   691 – Steward Observatory, Kitt Peak-Spacewatch MPS 350883
2010 09 27.40296 01 44 28.74 +09 15 20.0   691 – Steward Observatory, Kitt Peak-Spacewatch MPS 350883
2010 10 02.38482 01 41 01.51 +08 57 07.3 20.3 V 691 – Steward Observatory, Kitt Peak-Spacewatch MPS 350883
2010 10 02.40246 01 41 00.72 +08 57 03.2 20.2 V 691 – Steward Observatory, Kitt Peak-Spacewatch MPS 350883
2010 10 02.42009 01 40 59.92 +08 56 59.2 20.4 V 691 – Steward Observatory, Kitt Peak-Spacewatch MPS 350883
2010 10 07.541393 01 37 08.149 +08 36 40.02 20.99 g F51 – Pan-STARRS 1, Haleakala MPS 365149
2010 10 07.553566 01 37 07.556 +08 36 37.08 20.87 g F51 – Pan-STARRS 1, Haleakala MPS 365149
2010 10 08.36260 01 36 29.69 +08 33 16.8 20.2 V 691 – Steward Observatory, Kitt Peak-Spacewatch MPS 350883
2010 10 08.37771 01 36 28.97 +08 33 13.5 20.3 V 691 – Steward Observatory, Kitt Peak-Spacewatch MPS 350883
2010 10 08.39280 01 36 28.23 +08 33 09.8 20.2 V 691 – Steward Observatory, Kitt Peak-Spacewatch MPS 350883
2010 10 12.37933 01 33 17.80 +08 16 31.3 20.2 V 691 – Steward Observatory, Kitt Peak-Spacewatch MPS 353468
2010 10 12.39700 01 33 16.90 +08 16 26.8 20.1 V 691 – Steward Observatory, Kitt Peak-Spacewatch MPS 353468
2010 10 12.41469 01 33 16.03 +08 16 22.2 20.2 V 691 – Steward Observatory, Kitt Peak-Spacewatch MPS 353468
2010 10 30.346669 01 19 08.182 +07 03 15.11 20.60 w F51 – Pan-STARRS 1, Haleakala MPS 365149
2010 10 30.360686 01 19 07.551 +07 03 11.98 20.69 w F51 – Pan-STARRS 1, Haleakala MPS 365149
2010 10 30.375009 01 19 06.900 +07 03 08.80 20.73 w F51 – Pan-STARRS 1, Haleakala MPS 365149
2010 10 30.389010 01 19 06.268 +07 03 05.65 20.77 w F51 – Pan-STARRS 1, Haleakala MPS 365149
2010 11 05.20653 01 15 06.44 +06 43 04.6 20.4 V G96 – Mt. Lemmon Survey MPS 357186
2010 11 05.21352 01 15 06.15 +06 43 03.1 20.3 V G96 – Mt. Lemmon Survey MPS 357186
2010 11 05.22047 01 15 05.90 +06 43 01.8 20.5 V G96 – Mt. Lemmon Survey MPS 357186
2010 11 05.22749 01 15 05.58 +06 43 00.5 19.8 V G96 – Mt. Lemmon Survey MPS 357186
2011 12 02.18874 07 20 58.32 +23 49 51.2 21.0 R J04 – ESA Optical Ground Station, Tenerife MPS 404575
2011 12 02.21015 07 20 57.61 +23 49 55.1 21.0 R J04 – ESA Optical Ground Station, Tenerife MPS 404575
2011 12 02.23156 07 20 56.97 +23 49 56.5 20.8 R J04 – ESA Optical Ground Station, Tenerife MPS 404575
2011 12 28.23545 07 01 53.90 +24 36 59.1   691 – Steward Observatory, Kitt Peak-Spacewatch MPS 405714
2011 12 28.25350 07 01 52.91 +24 37 01.0   691 – Steward Observatory, Kitt Peak-Spacewatch MPS 405714
2011 12 28.27156 07 01 51.86 +24 37 02.9   691 – Steward Observatory, Kitt Peak-Spacewatch MPS 405714
